OMD7PM LBSF-LGAV

Flight info

Callsign OMD7PM
Flight time 1h 1m
Altitude 35000
Route NAPET T214 SIN DCT MAKED DCT SIGFO UM749 ROPOX
Aircraft A320/M-SDE3FGHIRWY/LB1

Departure

Time 2026-05-06 14:02
Airport Sofia Airport (LBSF)

Arrival

Time 2026-05-06 15:03
Airport Athens Eleftherios Venizelos International Airport (LGAV)
Time Latitude Longitude Altitude Speed Heading
2026-05-06 13:46 42.69111 23.41284 1753 ft 0 kts 73°
2026-05-06 13:50 42.69109 23.41278 1753 ft 2 kts 72°
2026-05-06 13:51 42.69102 23.41256 1753 ft 3 kts 52°
2026-05-06 13:51 42.69088 23.41238 1753 ft 2 kts 30°
2026-05-06 13:51 42.69082 23.41234 1753 ft 0 kts 27°
2026-05-06 13:54 42.69085 23.41236 1753 ft 2 kts 20°
2026-05-06 13:54 42.69112 23.41215 1753 ft 7 kts 307°
2026-05-06 13:54 42.69168 23.41168 1753 ft 12 kts 341°
2026-05-06 13:54 42.69251 23.41152 1753 ft 13 kts 11°
2026-05-06 13:55 42.69339 23.41178 1753 ft 13 kts 12°
2026-05-06 13:55 42.69433 23.41206 1753 ft 14 kts 13°
2026-05-06 13:55 42.69485 23.41305 1753 ft 15 kts 94°
2026-05-06 13:55 42.69477 23.41448 1753 ft 16 kts 95°
2026-05-06 13:56 42.69466 23.41599 1753 ft 16 kts 95°
2026-05-06 13:56 42.69457 23.41755 1753 ft 17 kts 94°
2026-05-06 13:56 42.69448 23.41920 1753 ft 18 kts 94°
2026-05-06 13:56 42.69438 23.42090 1753 ft 18 kts 95°
2026-05-06 13:57 42.69426 23.42268 1753 ft 19 kts 95°
2026-05-06 13:57 42.69415 23.42451 1753 ft 20 kts 94°
2026-05-06 13:57 42.69403 23.42642 1753 ft 21 kts 95°
2026-05-06 13:57 42.69392 23.42839 1753 ft 21 kts 95°
2026-05-06 13:58 42.69379 23.43042 1753 ft 22 kts 95°
2026-05-06 13:58 42.69367 23.43251 1753 ft 23 kts 94°
2026-05-06 13:58 42.69355 23.43464 1753 ft 23 kts 94°
2026-05-06 13:58 42.69341 23.43679 1753 ft 21 kts 94°
2026-05-06 13:59 42.69329 23.43841 1753 ft 13 kts 96°
2026-05-06 13:59 42.69343 23.43920 1753 ft 7 kts 42°
2026-05-06 13:59 42.69390 23.43946 1753 ft 8 kts
2026-05-06 13:59 42.69399 23.43947 1753 ft 0 kts
2026-05-06 14:00 42.69411 23.43948 1753 ft 4 kts
2026-05-06 14:00 42.69447 23.43952 1753 ft 7 kts
2026-05-06 14:00 42.69499 23.43951 1753 ft 7 kts 341°
2026-05-06 14:00 42.69517 23.43913 1753 ft 5 kts 274°
2026-05-06 14:01 42.69519 23.43858 1753 ft 9 kts 274°
2026-05-06 14:01 42.69534 23.43592 1753 ft 55 kts 276°
2026-05-06 14:01 42.69584 23.42843 1753 ft 106 kts 276°
2026-05-06 14:01 42.69655 23.41619 1753 ft 153 kts 276°
2026-05-06 14:02 42.69766 23.39996 1869 ft 184 kts 276°
2026-05-06 14:02 42.69997 23.38315 2507 ft 181 kts 296°
2026-05-06 14:02 42.70722 23.36943 3222 ft 179 kts 314°
2026-05-06 14:02 42.71559 23.35636 3761 ft 190 kts 310°
2026-05-06 14:03 42.72433 23.34194 4219 ft 204 kts 309°
2026-05-06 14:03 42.73350 23.32620 4617 ft 225 kts 308°
2026-05-06 14:03 42.74353 23.30871 5237 ft 242 kts 308°
2026-05-06 14:03 42.75413 23.29003 6019 ft 256 kts 308°
2026-05-06 14:04 42.76461 23.26952 6815 ft 272 kts 295°
2026-05-06 14:04 42.76829 23.24445 7696 ft 280 kts 268°
2026-05-06 14:04 42.76785 23.21765 8638 ft 286 kts 269°
2026-05-06 14:04 42.76780 23.19054 9655 ft 287 kts 270°
2026-05-06 14:05 42.76766 23.16328 10541 ft 293 kts 263°
2026-05-06 14:05 42.76154 23.13636 11141 ft 307 kts 240°
2026-05-06 14:05 42.74831 23.11273 11649 ft 324 kts 224°
2026-05-06 14:05 42.72962 23.09428 12135 ft 341 kts 207°
2026-05-06 14:06 42.70676 23.08369 12756 ft 353 kts 190°
2026-05-06 14:06 42.68224 23.07859 13536 ft 358 kts 189°
2026-05-06 14:06 42.65743 23.07380 14296 ft 362 kts 189°
2026-05-06 14:06 42.63260 23.06919 14990 ft 367 kts 189°
2026-05-06 14:07 42.60713 23.06451 15661 ft 372 kts 189°
2026-05-06 14:07 42.58128 23.05978 16317 ft 377 kts 189°
2026-05-06 14:07 42.55517 23.05500 16951 ft 381 kts 189°
2026-05-06 14:07 42.52871 23.05012 17561 ft 386 kts 189°
2026-05-06 14:08 42.50195 23.04518 18153 ft 390 kts 189°
2026-05-06 14:08 42.47496 23.04016 18724 ft 394 kts 189°
2026-05-06 14:08 42.44767 23.03507 19275 ft 398 kts 189°
2026-05-06 14:08 42.42004 23.02989 19817 ft 402 kts 189°
2026-05-06 14:09 42.39257 23.02477 20332 ft 406 kts 189°
2026-05-06 14:09 42.36437 23.01958 20841 ft 410 kts 189°
2026-05-06 14:09 42.33623 23.01232 21318 ft 413 kts 199°
2026-05-06 14:09 42.30949 22.99823 21755 ft 414 kts 210°
2026-05-06 14:10 42.28520 22.97746 22205 ft 415 kts 221°
2026-05-06 14:10 42.26422 22.95081 22673 ft 414 kts 232°
2026-05-06 14:10 42.24725 22.91943 23142 ft 414 kts 240°
2026-05-06 14:10 42.23166 22.88669 23682 ft 416 kts 240°
2026-05-06 14:11 42.21595 22.85377 24227 ft 418 kts 240°
2026-05-06 14:11 42.20035 22.82113 24734 ft 420 kts 240°
2026-05-06 14:11 42.18446 22.78799 25227 ft 423 kts 240°
2026-05-06 14:11 42.16841 22.75461 25703 ft 425 kts 240°
2026-05-06 14:12 42.15232 22.72115 26155 ft 427 kts 240°
2026-05-06 14:12 42.13614 22.68747 26578 ft 429 kts 240°
2026-05-06 14:12 42.11991 22.65372 26968 ft 431 kts 240°
2026-05-06 14:12 42.10356 22.61975 27345 ft 433 kts 241°
2026-05-06 14:13 42.08715 22.58564 27712 ft 434 kts 241°
2026-05-06 14:13 42.07068 22.55138 28076 ft 436 kts 241°
2026-05-06 14:13 42.05440 22.51752 28437 ft 438 kts 241°
2026-05-06 14:13 42.03781 22.48306 28829 ft 440 kts 241°
2026-05-06 14:14 42.02014 22.44923 29270 ft 444 kts 233°
2026-05-06 14:14 41.99784 22.42040 29828 ft 448 kts 221°
2026-05-06 14:14 41.97118 22.39845 30432 ft 451 kts 209°
2026-05-06 14:14 41.94144 22.38473 31003 ft 455 kts 196°
2026-05-06 14:15 41.90980 22.37993 31519 ft 460 kts 183°
2026-05-06 14:15 41.87772 22.38365 31964 ft 464 kts 176°
2026-05-06 14:15 41.84562 22.38924 32283 ft 467 kts 176°
2026-05-06 14:15 41.81329 22.39509 32618 ft 469 kts 176°
2026-05-06 14:16 41.78097 22.40105 33011 ft 469 kts 175°
2026-05-06 14:16 41.74907 22.40695 33439 ft 468 kts 176°
2026-05-06 14:16 41.71687 22.41285 33868 ft 467 kts 176°
2026-05-06 14:16 41.68469 22.41866 34293 ft 466 kts 176°
2026-05-06 14:17 41.65264 22.42434 34707 ft 464 kts 176°
2026-05-06 14:17 41.62055 22.42996 34953 ft 465 kts 176°
2026-05-06 14:17 41.55674 22.44118 35012 ft 461 kts 176°
2026-05-06 14:18 41.49313 22.45242 35005 ft 461 kts 176°
2026-05-06 14:18 41.42996 22.46364 35009 ft 461 kts 176°
2026-05-06 14:19 41.36631 22.47493 35012 ft 462 kts 176°
2026-05-06 14:19 41.30257 22.48629 35014 ft 462 kts 176°
2026-05-06 14:20 41.23881 22.49747 35018 ft 462 kts 176°
2026-05-06 14:20 41.17505 22.50855 35022 ft 462 kts 176°
2026-05-06 14:21 41.11246 22.52584 35022 ft 466 kts 163°
2026-05-06 14:21 41.05195 22.55799 34992 ft 469 kts 161°
2026-05-06 14:22 40.99139 22.59050 35002 ft 470 kts 161°
2026-05-06 14:22 40.93078 22.62291 35016 ft 470 kts 161°
2026-05-06 14:23 40.87012 22.65531 35021 ft 470 kts 161°
2026-05-06 14:23 40.80940 22.68759 35028 ft 470 kts 161°
2026-05-06 14:24 40.74907 22.71956 35034 ft 470 kts 161°
2026-05-06 14:24 40.68835 22.75174 35037 ft 470 kts 161°
2026-05-06 14:25 40.62764 22.78392 35038 ft 470 kts 161°
2026-05-06 14:25 40.56693 22.81603 35039 ft 470 kts 161°
2026-05-06 14:26 40.50652 22.84779 35034 ft 471 kts 161°
2026-05-06 14:26 40.44568 22.87977 35035 ft 471 kts 161°
2026-05-06 14:27 40.38486 22.91177 35036 ft 471 kts 161°
2026-05-06 14:27 40.32400 22.94372 35035 ft 471 kts 161°
2026-05-06 14:28 40.26309 22.97555 35036 ft 471 kts 161°
2026-05-06 14:28 40.20216 23.00735 35036 ft 472 kts 161°
2026-05-06 14:29 40.14120 23.03913 35037 ft 472 kts 161°
2026-05-06 14:29 40.08058 23.07057 35037 ft 472 kts 161°
2026-05-06 14:30 40.01953 23.10224 35040 ft 472 kts 161°
2026-05-06 14:30 39.95853 23.13393 35044 ft 472 kts 161°
2026-05-06 14:31 39.89756 23.16554 35047 ft 472 kts 161°
2026-05-06 14:31 39.83658 23.19702 35049 ft 471 kts 161°
2026-05-06 14:32 39.77559 23.22834 35048 ft 472 kts 161°
2026-05-06 14:32 39.71494 23.25948 35046 ft 472 kts 161°
2026-05-06 14:33 39.65384 23.29075 35045 ft 472 kts 161°
2026-05-06 14:33 39.59273 23.32206 35048 ft 472 kts 161°
2026-05-06 14:34 39.53160 23.35327 35051 ft 472 kts 161°
2026-05-06 14:34 39.48078 23.37920 35054 ft 472 kts 161°
2026-05-06 14:35 39.41967 23.41038 35056 ft 472 kts 161°
2026-05-06 14:35 39.34864 23.44661 35059 ft 472 kts 161°
2026-05-06 14:36 39.29742 23.47257 35061 ft 472 kts 161°
2026-05-06 14:36 39.23626 23.50347 35063 ft 472 kts 161°
2026-05-06 14:37 39.17529 23.53432 35066 ft 476 kts 161°
2026-05-06 14:37 39.11370 23.56536 35057 ft 472 kts 161°
2026-05-06 14:38 39.05256 23.59616 35058 ft 471 kts 161°
2026-05-06 14:38 38.99151 23.62681 35058 ft 471 kts 161°
2026-05-06 14:39 38.92931 23.65245 35067 ft 468 kts 173°
2026-05-06 14:39 38.86545 23.66261 35056 ft 464 kts 177°
2026-05-06 14:40 38.80133 23.67204 35068 ft 463 kts 177°
2026-05-06 14:40 38.73726 23.68148 35069 ft 464 kts 177°
2026-05-06 14:41 38.67313 23.69084 35068 ft 464 kts 177°
2026-05-06 14:41 38.60900 23.70017 35070 ft 464 kts 177°
2026-05-06 14:42 38.54531 23.70945 34846 ft 463 kts 177°
2026-05-06 14:42 38.51325 23.71409 34600 ft 463 kts 177°
2026-05-06 14:42 38.48124 23.71873 34351 ft 464 kts 177°
2026-05-06 14:43 38.44918 23.72339 34101 ft 462 kts 177°
2026-05-06 14:43 38.41733 23.72800 33793 ft 459 kts 177°
2026-05-06 14:43 38.38569 23.73252 33155 ft 455 kts 177°
2026-05-06 14:43 38.35441 23.73694 32540 ft 451 kts 177°
2026-05-06 14:44 38.32335 23.74142 31924 ft 447 kts 177°
2026-05-06 14:44 38.29264 23.74591 31311 ft 443 kts 177°
2026-05-06 14:44 38.26215 23.75043 30703 ft 439 kts 177°
2026-05-06 14:45 38.20230 23.75980 29845 ft 425 kts 174°
2026-05-06 14:45 38.17457 23.77097 29368 ft 427 kts 155°
2026-05-06 14:45 38.15020 23.79256 28663 ft 432 kts 136°
2026-05-06 14:45 38.13179 23.82279 27830 ft 435 kts 118°
2026-05-06 14:46 38.11762 23.85680 27083 ft 436 kts 115°
2026-05-06 14:46 38.10388 23.89099 26516 ft 432 kts 115°
2026-05-06 14:46 38.09028 23.92465 25997 ft 426 kts 115°
2026-05-06 14:46 38.07674 23.95787 25454 ft 422 kts 115°
2026-05-06 14:47 38.06323 23.99076 24899 ft 418 kts 115°
2026-05-06 14:47 38.04976 24.02330 24353 ft 414 kts 115°
2026-05-06 14:47 38.03717 24.05532 23801 ft 408 kts 107°
2026-05-06 14:47 38.03020 24.08984 23148 ft 402 kts 96°
2026-05-06 14:48 38.02553 24.12459 22607 ft 398 kts 95°
2026-05-06 14:48 38.02110 24.15925 21838 ft 399 kts 95°
2026-05-06 14:48 38.01672 24.19431 20897 ft 405 kts 95°
2026-05-06 14:48 38.01241 24.22986 19917 ft 411 kts 95°
2026-05-06 14:49 38.00901 24.26581 19084 ft 408 kts 87°
2026-05-06 14:49 38.01304 24.30085 18276 ft 398 kts 67°
2026-05-06 14:49 38.02540 24.33094 17497 ft 386 kts 48°
2026-05-06 14:49 38.04418 24.35446 16792 ft 377 kts 36°
2026-05-06 14:50 38.06419 24.37541 16231 ft 369 kts 36°
2026-05-06 14:50 38.08390 24.39571 15637 ft 363 kts 36°
2026-05-06 14:50 38.10345 24.41571 14976 ft 359 kts 35°
2026-05-06 14:50 38.12286 24.43541 14309 ft 356 kts 36°
2026-05-06 14:51 38.14273 24.45383 13639 ft 350 kts 25°
2026-05-06 14:51 38.16554 24.46326 12910 ft 343 kts
2026-05-06 14:51 38.18885 24.46114 12099 ft 334 kts 343°
2026-05-06 14:51 38.20930 24.44835 11533 ft 320 kts 327°
2026-05-06 14:52 38.22695 24.43333 11371 ft 299 kts 326°
2026-05-06 14:52 38.24359 24.41887 11125 ft 284 kts 325°
2026-05-06 14:52 38.25999 24.40461 10385 ft 288 kts 325°
2026-05-06 14:52 38.27680 24.39002 9505 ft 296 kts 325°
2026-05-06 14:53 38.29407 24.37504 8569 ft 305 kts 325°
2026-05-06 14:53 38.31094 24.35830 7569 ft 311 kts 311°
2026-05-06 14:53 38.32196 24.33458 6519 ft 317 kts 287°
2026-05-06 14:53 38.32420 24.30720 5606 ft 316 kts 262°
2026-05-06 14:54 38.31703 24.28143 5068 ft 304 kts 236°
2026-05-06 14:54 38.30246 24.26360 4915 ft 282 kts 209°
2026-05-06 14:54 38.28475 24.25542 4781 ft 263 kts 196°
2026-05-06 14:54 38.26783 24.24870 4649 ft 247 kts 198°
2026-05-06 14:55 38.25196 24.24211 4519 ft 233 kts 198°
2026-05-06 14:55 38.23696 24.23582 4391 ft 222 kts 198°
2026-05-06 14:55 38.22304 24.22831 4266 ft 214 kts 210°
2026-05-06 14:55 38.21084 24.21811 4139 ft 207 kts 216°
2026-05-06 14:56 38.19942 24.20734 4012 ft 202 kts 216°
2026-05-06 14:56 38.18846 24.19681 3887 ft 198 kts 216°
2026-05-06 14:56 38.17759 24.18635 3755 ft 194 kts 216°
2026-05-06 14:56 38.16685 24.17604 3581 ft 193 kts 216°
2026-05-06 14:57 38.15616 24.16576 3370 ft 193 kts 216°
2026-05-06 14:57 38.14541 24.15544 3169 ft 193 kts 216°
2026-05-06 14:57 38.13476 24.14521 3036 ft 191 kts 216°
2026-05-06 14:57 38.12412 24.13502 2983 ft 192 kts 216°
2026-05-06 14:58 38.11347 24.12482 3013 ft 192 kts 216°
2026-05-06 14:58 38.10279 24.11459 3013 ft 192 kts 216°
2026-05-06 14:58 38.09239 24.10463 3062 ft 182 kts 216°
2026-05-06 14:58 38.08267 24.09529 3015 ft 170 kts 216°
2026-05-06 14:59 38.07357 24.08653 2979 ft 162 kts 215°
2026-05-06 14:59 38.06453 24.07788 2973 ft 163 kts 215°
2026-05-06 14:59 38.05547 24.06926 2840 ft 162 kts 215°
2026-05-06 14:59 38.04651 24.06070 2665 ft 161 kts 216°
2026-05-06 15:00 38.03765 24.05215 2464 ft 159 kts 216°
2026-05-06 15:00 38.02896 24.04386 2213 ft 151 kts 216°
2026-05-06 15:00 38.02103 24.03628 2017 ft 137 kts 216°
2026-05-06 15:00 38.01354 24.02914 1835 ft 134 kts 216°
2026-05-06 15:01 38.00608 24.02205 1683 ft 134 kts 216°
2026-05-06 15:01 37.99876 24.01505 1504 ft 132 kts 217°
2026-05-06 15:01 37.99145 24.00808 1352 ft 131 kts 217°
2026-05-06 15:01 37.98418 24.00113 1166 ft 131 kts 217°
2026-05-06 15:02 37.97691 23.99419 997 ft 130 kts 217°
2026-05-06 15:02 37.96966 23.98728 811 ft 131 kts 217°
2026-05-06 15:02 37.96246 23.98035 633 ft 130 kts 218°
2026-05-06 15:02 37.95521 23.97344 441 ft 131 kts 216°
2026-05-06 15:03 37.94797 23.96667 323 ft 129 kts 218°
2026-05-06 15:03 37.94199 23.96072 319 ft 79 kts 214°
2026-05-06 15:03 37.93924 23.95805 319 ft 30 kts 229°
2026-05-06 15:03 37.93828 23.95623 319 ft 19 kts 247°
2026-05-06 15:04 37.93785 23.95495 319 ft 14 kts 248°